-1 Query Result

LUMCON's Bayouside Classroom: Query Results


Try Another Query    Instructions for saving Query Results    View Delimited Text File for this Query   
UserNameUserIDGroupNumberLocationLocationIDSampleDateSampleTimeBottomTempTopTempBottomSalinityTopSalinityBottomDOTopDOBottompHToppHBottomTurbidityTopTurbidityDepth
btassin 73 NA EvergreenJHS 17 1/1/1900  NA 20 NA NA NA NA 45 NA 
jenniferp 13 EvergreenJHS 17 1/1/1900 13:20 15 15 NA NA 2.0 2.0 NA NA 35.8 35.8 110 
jenniferp 13 NA EvergreenJHS 17 4/11/2003 08:00 NA 15.7 NA NA 2.0     NA 
jenniferp 13 EvergreenJHS 17 3/12/2004 09:30 NA 17 NA NA 4.4 NA NA NA NA 
jenniferp 13 EvergreenJHS 17 3/19/2004 13:10 NA 24 NA NA 5.6 NA NA NA NA 
jenniferp 13 EvergreenJHS 17 3/26/2004 09:30 NA 19 NA NA 4.2 NA NA NA NA 
jenniferp 13 EvergreenJHS 17 4/2/2004 09:15 NA 19 NA NA NA NA NA NA 
jenniferp 13 EvergreenJHS 17 4/23/2004 09:20 NA 24 NA NA 2.6 NA NA NA NA 
jenniferp 13 EvergreenJHS 17 5/7/2004 09:30 NA 23.0 NA NA 0.8 NA NA NA NA NA 
kmarcantel 45 EvergreenJHS 17 10/12/2004 9:38 NA 24 NA NA 2.2 NA 7.0 na na NA 
kmarcantel 45 EvergreenJHS 17 10/12/2004 9:38 NA 23 NA NA 1.6 NA 6.9 na na NA 
kmarcantel 45 EvergreenJHS 17 10/12/2004 9:38 NA 25 NA NA 2.0 NA 7.2 na na NA 
kmarcantel 45 EvergreenJHS 17 10/12/2004 9:38 NA 24 NA NA NA 6.7 na na NA 
kmarcantel 45 EvergreenJHS 17 10/12/2004 9:36 NA 26 NA NA 4.5 NA 6.6 na na NA 
kmarcantel 45 EvergreenJHS 17 10/12/2004 11:00 NA 28 NA NA NA 7.2 na na NA 
kmarcantel 45 EvergreenJHS 17 10/12/2004 11:15 NA 30 NA NA 3.8 NA 7.3 na na NA 
kmarcantel 45 EvergreenJHS 17 10/12/2004 11:00 NA 28 NA NA 2.3 NA 7.1 na na NA 
kmarcantel 45 EvergreenJHS 17 10/12/2004 11:25 NA 28 NA NA 1.7 NA 7.3 na na NA 
kmarcantel 45 EvergreenJHS 17 10/12/2004 11:00 NA 26 NA NA NA 7.1 na na NA 
kmarcantel 45 EvergreenJHS 17 10/12/2004 11:00 NA 26 NA NA 4.6 NA 7.1 na na NA 
kmarcantel 45 EvergreenJHS 17 10/20/2004 7:35 NA 25 NA NA 0.8 NA 7.2 NA NA 
kmarcantel 45 EvergreenJHS 17 11/17/2004 7:45 NA 19 NA NA NA 1.6 NA 7.3 na na 
jenniferp 13 EvergreenJHS 17 3/23/2005 08:15 NA 19.8 NA NA NA 4.8 NA 8.5 na na NA 
jenniferp 13 EvergreenJHS 17 3/23/2005 09:40 NA 20.6 NA NA NA 3.9 NA 8.1 na na NA 
jenniferp 13 EvergreenJHS 17 4/15/2005 10:58 NA 20.1 NA NA NA 3.0 NA 7.9 na na 120 
jenniferp 13 EvergreenJHS 17 4/22/2005 10:50 NA 23 NA NA NA 2.0 NA 7.5 na na 120 
jenniferp 13 EvergreenJHS 17 5/4/2005 10:55 NA 20 NA NA NA 4.0 NA 8.3 na na 115 
jenniferp 13 EvergreenJHS 17 5/6/2005 10:55 NA 22 NA NA NA 3.8 NA 7.7 na na 115 
kmarcantel 45 EvergreenJHS 17 10/13/2005 07:35 23 1.0 7.7 na na 10.0 
kmarcantel 45 EvergreenJHS 17 11/17/2005 7:45 NA 12 NA NA 1.4 NA 8.4 na na 10.0 
jenniferp 13 EvergreenJHS 17 3/17/2006 10:00 NA 21 NA 0.5 NA 1.8 NA 8.4 na na 115 
jenniferp 13 EvergreenJHS 17 3/28/2006 11:00 NA 19.2 NA NA NA 4.2 NA 8.5 NA NA 115 
jenniferp 13 EvergreenJHS 17 3/30/2006 11:00 24 24 25 21        
jenniferp 13 EvergreenJHS 17 3/30/2006 11:00 NA 22.3 NA NA NA 6.6 NA 8.3 na na 115 
jenniferp 13 EvergreenJHS 17 3/31/2006 11:00 NA 22.3 NA NA NA 3.2 NA 7.5 na na 115 
jenniferp 13 EvergreenJHS 17 4/4/2006 11:00 NA 21.8 NA NA NA 0.8 NA 7.6 na na 110 
jenniferp 13 EvergreenJHS 17 4/7/2006 11:00 NA 22.8 NA NA NA 0.8 NA 7.7 na na 115 
btassin 73  EvergreenJHS 17 10/11/2006            
btassin 73 EvergreenJHS 17 10/11/2006 1:26 NA NA NA NA NA 5.5 N/A 8.4 NA 60 cm NA 
btassin 73 EvergreenJHS 17 10/11/2006 13.20  25.5  NA  4.4  7.8  60 cm NA 
btassin 73 EvergreenJHS 17 10/12/2006 1:20 NA 26.7 NA NA NA 7.2 NA 8.50 NA 60 cm NA 
btassin 73 EvergreenJHS 17 10/12/2006 1:20 NA 26.7 NA NA NA 7.2 NA 8.50 NA 60 cm NA 
btassin 73 EvergreenJHS 17 10/12/2006 13:20 NA 27.1 NA NA NA 5.4 NA 8.05 NA 60 cm NA 
btassin 73 EvergreenJHS 17 10/12/2006 13:20  27.3  NA   7.5  60 cm NA 
btassin 73 EvergreenJHS 17 10/12/2006 13:20  27.3  NA   7.5  60 cm NA 
btassin 73 EvergreenJHS 17 10/12/2006 13.20  26.7     8.02  60 cm  
btassin 73 EvergreenJHS 17 10/12/2006 11:16 18.2 NA 175.6 NA NA 7.58 NA 18.1 NA NA 
btassin 73  EvergreenJHS 17 11/12/2006 13:10 NA 15.4 NA 319 NA 8.6 NA 4.2 NA 60cm NA 
btassin 73 EvergreenJHS 17 11/17/2006 1:30 N/A 17.7 N/A 361 N/A N/A 8.02 N/A 60cm.  
btassin 73 EvergreenJHS 17 11/17/2006 13:10 NA 16.8 NA NA NA NA 8.8 NA 60cm NA 
btassin 73  EvergreenJHS 17 11/17/2006 13:11 NA 16.5  NA  8.4  7.91    
btassin 73  EvergreenJHS 17 11/17/2006 13:11 NA 16.5 NA NA NA 8.4 NA 7.91 NA 60 cm NA 
btassin 73 EvergreenJHS 17 11/17/2006 13 NA 15.4 NA NA NA 7.6 NA 4.30 NA 60  
btassin 73 EvergreenJHS 17 11/17/2006 13:10 NA 17 NA NA NA 7.8 NA 7.43 NA 60 cm NA 
btassin 73 EvergreenJHS 17 11/17/2006 13:10 NA 16.2 NA NA NA 8.6 N/A 8.09 NA 60 cm NA 
btassin 73 EvergreenJHS 17 12/15/2006 13:10  19.5    7.6  8.02  60  
btassin 73 EvergreenJHS 17 12/15/2006 13:06 NA 18.6 NA  N/A 6.8  8.01  60 cm  
btassin 73 EvergreenJHS 17 12/15/2006 13:06 NA 19.1 NA NA NA NA 8.08 NA 60cm NA 
btassin 73 EvergreenJHS 17 12/15/2006 13:07 NA 18.4 NA NA NA NA 3.9 NA 56 NA 
btassin 73 EvergreenJHS 17 12/15/2006 1305 n/a 19.3 n/a 493 n/a 6.4 n/a 88.7 n/a 60 cm n/a 
btassin 73 EvergreenJHS 17 12/15/2006 13:05 NA 19.2 NA NA NA  NA 7.34 NA 60 N/A 
btassin 73 EvergreenJHS 17 12/15/2006 13:05 NA 19.7 NA NA NA 8.2 NA 8.18WARRM,PARTL NA 60cm NA 
btassin 73 EvergreenJHS 17 10/24/2007 11:16 NA 18.2 NA NA NA NA 8.28 NA 17.7 NA 
btassin 73 EvergreenJHS 17 10/24/2007 11:16 NA 18.8 NA NA NA NA 7,27 NA 15.5 NA 
btassin 73 EvergreenJHS 17 10/24/2007 11:16 NA 18.8 NA NA NA NA 7.45 NA 18.9 NA 
btassin 73 EvergreenJHS 17 10/24/2007 11:16 NA 18.2 NA 159.3 NA NA NA 6.98 NA 20cm NA 
btassin 73 EvergreenJHS 17 10/24/2007 11:16 NA 18.7 NA NA NA 4.0 NA 7.79 NA 18.2 NA 
btassin 73 EvergreenJHS 17 10/24/2007 11:16 NA 18.2 NA NA NA 5.0 NA 8.40 NA 16 NA 
btassin 73 EvergreenJHS 17 10/24/2007 11:16 NA 65.37 NA 117 NA NA 8.48 NA 16 NA 
btassin 73 EvergreenJHS 17 10/24/2007 11:16 NA 18.5 NA 17.53 NA 5.8 NA 8.96 NA 19.1 cm NA 
btassin 73 10 EvergreenJHS 17 10/24/2007 11:16 NA 18.1 NA 197.4 NA 5.25 NA 7.85 NA 15.4 cm NA 
jenniferp 13 EvergreenJHS 17 11/26/2007 13:20 NA 18C NA NA NA 2.8 NA NA NA 41.2 110 
jenniferp 13 EvergreenJHS 17 11/26/2007 13:20 NA 16 NA NA NA 2.2 NA NA NA 41cm 110 
jenniferp 13 EvergreenJHS 17 11/26/2007 13:20  20 NA NA NA 2.4 NA NA NA 35.2 110 
jenniferp 13 EvergreenJHS 17 11/28/2007 13:10 NA  18 NA NA NA 1.4 NA NA NA 36.2 110 
jenniferp 13 EvergreenJHS 17 11/28/2007 13:15 NA 20c NA NA NA 3.8 NA NA NA 35.2 115 
jenniferp 13 EvergreenJHS 17 11/28/2007 13:15 NA 16c NA NA NA 2.8 NA NA NA NA 115cm 
jenniferp 13 EvergreenJHS 17 2/17/2008 9:40 21.0 21.0 NA NA NA NA 27.6 27.6 NA 
btassin 73 EvergreenJHS 17 3/3/2008 11:08 NA 20 NA NA NA NA NA 35.4  NA 
jenniferp 13 EvergreenJHS 17 3/17/2008 9:40 21.3 21.3 NA NA 2.7 2.7 NA NA 26.4 26.4 125 
jenniferp 13 EvergreenJHS 17 3/17/2008 9:40  21.4 NA NA  3.0 NA NA NA 28.2 125 
jenniferp 13 NA EvergreenJHS 17 3/17/2008 9:40   21.0 NA NA NA 4.2 NA NA NA 22.8 125 cm 
btassin 73 NA EvergreenJHS 17 10/29/2008 11:15 NA 16 NA NA 2.2 NA NA NA 25 NA 
btassin 73 EvergreenJHS 17 10/29/2008 11:15 NA 16 NA NA 2.2 NA NA NA 31cm NA 
btassin 73 NA EvergreenJHS 17 10/29/2008  NA 60 NA NA 2.8 NA NA NA 35 NA 
btassin 73 10 EvergreenJHS 17 10/29/2008 11:05 NA 16 NA NA 1.2 NA NA NA 39.2 NA 
btassin 73 EvergreenJHS 17 10/29/2008 11:15 NA 16 NA NA NA 2.7 NA NA NA 33 cm NA 
btassin 73 EvergreenJHS 17 10/29/2008 11:15 NA 16 NA NA 2.2 NA NA NA 30cm NA 
btassin 73 EvergreenJHS 17 10/29/2008 11:50 NA 16   NA 3.8 NA NA NA 20.21 NA 
btassin 73 EvergreenJHS 17 10/29/2008 11:15 NA 16 NA NA NA NA NA 30 cm NA 
btassin 73 NA EvergreenJHS 17 10/29/2008  NA NA NA NA NA NA NA NA NA NA NA 
btassin 73 EvergreenJHS 17 10/29/2008 11:15 NA 16 NA NA 1.8 NA NA NA 2.8cm NA 
Lumcon EvergreenJHS 17 12/10/2008 10:23 19 18 19 12 9.8 9.8 8.9 8.8 NA 16.2 123 
btassin 73 EvergreenJHS 17 2/19/2009 11:15 NA 20 NA NA NA 7.8 NA 60 NA 
btassin 73 EvergreenJHS 17 2/19/2009 11:15 NA 20 NA NA NA 7.8 NA 60 NA 
btassin 73 EvergreenJHS 17 2/19/2009 11:15 NA 19 NA NA 2.8 NA 8.1 NA 60 NA 
btassin 73 EvergreenJHS 17 2/19/2009 11:15 NA 20 NA NA 2.1 NA 7.8 NA 60 NA 
btassin 73 EvergreenJHS 17 2/19/2009 11:00 NA 20 NA NA 2.4 NA 8.3 NA 60 NA 
btassin 73 EvergreenJHS 17 2/19/2009 11:00 NA 18 NA NA NA NA NA NA NA NA NA 
btassin 73 EvergreenJHS 17 2/19/2009 11:00 NA 18 NA 2.5 NA 2.4 NA 8.4 NA 62cm NA 
btassin 73 NA EvergreenJHS 17 2/19/2009  NA 19 NA NA 4.1 NA 7.7 NA 62 NA 
btassin 73 NA EvergreenJHS 17 2/19/2009  NA 20 NA NA NA NA 60cm NA 
btassin 73 EvergreenJHS 17 4/9/2009  NA 19 NA NA 2.4 NA NA NA NA NA 
btassin 73 EvergreenJHS 17 4/9/2009 9:40 NA 19 NA NA 1.8 NA 7.9 NA NA NA 
btassin 73 EvergreenJHS 17 4/9/2009 9:40 NA 20 NA NA NA 7.8 NA NA NA 
btassin 73 EvergreenJHS 17 4/9/2009  NA 29 NA NA 3.8 NA 8.1 NA 31 NA 
btassin 73 EvergreenJHS 17 4/9/2009  NA 29 NA NA 3.8 NA 8.1 NA 31 NA 
btassin 73 EvergreenJHS 17 4/9/2009 9:40 NA 22 NA NA 5.2 NA 8.6 NA 31 NA 
btassin 73 EvergreenJHS 17 4/9/2009 9:40 NA 20 NA NA NA 7.6 NA NA NA 
btassin 73 EvergreenJHS 17 11/2/2009 7:55 NA 15 NA NA NA NA 8.1  60 NA 
btassin 73 EvergreenJHS 17 11/2/2009 7:55 NA 19 NA NA NA NA 8.3  60 NA 
btassin 73 EvergreenJHS 17 11/2/2009 7:55 NA 17 NA NA 5.8 NA 7.7  60cm NA 
btassin 73 EvergreenJHS 17 11/2/2009 7:55 NA 18 NA NA 5.5 NA  60cm NA 
btassin 73 EvergreenJHS 17 11/2/2009 7:55 NA 20 NA NA NA NA  60cm NA 
btassin 73 EvergreenJHS 17 11/2/2009 7:55 NA 17 NA NA NA 8.2  60cm NA 
btassin 73 EvergreenJHS 17 11/2/2009 7:55 NA 18 NA NA NA 7.5  50cm NA 
btassin 73 EvergreenJHS 17 11/2/2009 7:55 NA 16 NA NA NA 7.8  60cm NA 
btassin 73 EvergreenJHS 17 11/2/2009 7:55 NA 18 NA NA NA 7.7  60cm NA 
btassin 73 EvergreenJHS 17 3/1/2010 7:57 NA 10 NA NA NA  39 NA 
btassin 73 EvergreenJHS 17 3/1/2010 7:57 NA 14 NA 1.04 NA NA 8.4  35 NA 
btassin 73 #3 EvergreenJHS 17 3/1/2010 7:57 NA 15 NA NA 7.2 NA 9.0  44cm NA 
btassin 73 EvergreenJHS 17 3/1/2010 7:57 NA 14 NA NA 4.8 NA 9.6  38 NA 
btassin 73 EvergreenJHS 17 3/1/2010 7:53 NA 10 NA 1.002 NA NA  38 NA 
btassin 73 EvergreenJHS 17 3/1/2010  NA 15 NA NA NA 8.9  32.2 NA 
btassin 73 EvergreenJHS 17 3/1/2010 7:57 NA 12 NA 1.03 NA 5.3 NA 8.5  42 NA 
btassin 73 EvergreenJHS 17 4/30/2010  NA 21 NA n/a NA 1.4 NA 7.7  31.4 NA 
btassin 73 EvergreenJHS 17 4/30/2010 08:00 NA 25 NA NA NA NA  38 NA 
btassin 73 EvergreenJHS 17 4/30/2010 8:00 NA 25 NA NA NA NA 8..5  37.2 NA 
btassin 73 EvergreenJHS 17 4/30/2010 08:00 NA 21 NA NA NA NA 8.1  39 NA 
btassin 73 EvergreenJHS 17 4/30/2010 8:00 NA 24 NA NA NA .7 NA 7.8  36 NA 
btassin 73 EvergreenJHS 17 4/30/2010 8:00  NA 24 NA  NA NA 8.3  35 NA 
btassin 73 EvergreenJHS 17 10/29/2010 13:30 20 NA NA 6.2 NA 7.8 NA  40 NA 
btassin 73 EvergreenJHS 17 10/29/2010 1330 NA 21 NA NA 2.9 NA 7.5  37 NA 
btassin 73 5NA EvergreenJHS 17 10/29/2010 13 30 NA 23 NA NA 4.7 NA 7.6  36  
btassin 73 EvergreenJHS 17 10/29/2010 13:30 NA 21 NA NA 1.8 NA 8.2  32cm NA 
btassin 73 EvergreenJHS 17 10/29/2010 13:30 NA 23 NA NA NA NA 7.8  34  NA 
btassin 73 EvergreenJHS 17 11/2/2010 13:30 NA 23 NA NA 4.2 NA 7.8  49.2 NA 
btassin 73 EvergreenJHS 17 2/8/2011 9:30 NA NA NA NA 8.1  60 NA 
btassin 73 EvergreenJHS 17 2/8/2011 9;30 NA NA NA 7.02 NA 11.7  60 NA 
btassin 73 EvergreenJHS 17 2/8/2011 9:30 NA NA 1.04 NA NA 8.3  60 NA 
btassin 73 EvergreenJHS 17 2/8/2011 9:30 NA 8C NA NA 7.4 NA 9.5  60 NA 
btassin 73 EvergreenJHS 17 2/8/2011 9:30 NA -7 NA NA 8.2 NA 8.5  60 NA 
btassin 73 EvergreenJHS 17 2/8/2011 9:30 NA NA 0.07 NA NA 8.2  60 NA 
btassin 73 EvergreenJHS 17 2/8/2011   NA NA NA  60 NA 
btassin 73 EvergreenJHS 17 4/15/2011 9:30  NA 20 NA NA .4 NA 7.4  38 NA 
btassin 73 EvergreenJHS 17 4/15/2011  NA 22 NA NA 0.2 NA 7.7  41 NA 
btassin 73 EvergreenJHS 17 4/15/2011 9:30  NA 22 NA NA 2.2 NA 8.6  48.1 NA 
btassin 73 EvergreenJHS 17 4/15/2011 9:30   22 NA NA NA 8.2  35 NA 
btassin 73 EvergreenJHS 17 4/15/2011 9:30  NA 24 NA NA NA 7.6  35 NA 
btassin 73 EvergreenJHS 17 4/15/2011 9:30   26 NA NA .2 NA 8.0  39.1 NA 
btassin 73 EvergreenJHS 17 4/15/2011 9:30  NA 24 NA NA 1.4 NA 8.5  36 NA 
btassin 73 EvergreenJHS 17 4/15/2011 9:30  NA 21 NA NA NA 6.5  36 NA 
Lumcon EvergreenJHS 17 10/4/2012 13:30 NA 17 NA NA 4.1 NA 7.6  21 NA 
Lumcon EvergreenJHS 17 10/4/2012 13:30 30 NA NA NA 7.6 NA  25 NA 
Lumcon EvergreenJHS 17 10/4/2012 13:30 NA 20 NA NA NA NA 8.5  21.2 NA 
Lumcon EvergreenJHS 17 10/4/2012 13:30 NA 27 NA NA NA 7.6  26 NA 
Lumcon 10 EvergreenJHS 17 12/3/2012 11;16 23 22 20 20 7.6 7.6  38 NA 
Lumcon EvergreenJHS 17 12/10/2012 1109 23 25 16 17 7.6 7.7  37 NA 
Lumcon EvergreenJHS 17 12/10/2012 11:11 25 25 20 20 4.2 4.6 7.8 7.9  38 NA 
Lumcon NA EvergreenJHS 17 12/12/2012 10:00 12 12 30 25 10.0 9.2 8.0 8.0  38 NA